Location: Livorno
(43.5500°N, 10.3170°E)
Time: 22:20:43
(UTC+01:00)

ISS - Visible Passes

Search period start: 24 March 2019 00:00
Search period end: 03 April 2019 01:00
Orbit: 408 x 411 km, 51.6° (Epoch: 24 March)

Date Brightness Start Highest point End Pass type
(mag) Time Alt. Az. Time Alt. Az. Time Alt. Az.
24 Mar -3.8 19:30:39 10° WSW 19:33:57 81° NNW 19:37:09 11° ENE visible
24 Mar -1.2 21:08:10 10° WNW 21:09:56 20° NW 21:09:56 20° NW visible
25 Mar -2.0 20:17:08 10° W 20:20:05 29° NNW 20:21:38 20° NNE visible
26 Mar -2.6 19:26:09 10° W 19:29:17 40° NNW 19:32:26 10° NE visible
26 Mar -1.3 21:03:58 10° NW 21:05:59 19° NNW 21:05:59 19° NNW visible
27 Mar -1.6 20:12:57 10° WNW 20:15:36 22° N 20:17:27 14° NNE visible
28 Mar -1.9 19:21:52 10° WNW 19:24:43 26° NNW 19:27:34 10° NE visible
28 Mar -1.4 20:59:31 10° NW 21:01:37 20° N 21:01:37 20° N visible
29 Mar -1.5 20:08:37 10° NW 20:11:08 20° N 20:12:58 13° NE visible
29 Mar -0.3 21:45:25 10° NW 21:45:43 12° NW 21:45:43 12° NW visible
30 Mar -1.6 19:17:37 10° WNW 19:20:11 20° N 19:22:46 10° NE visible
30 Mar -1.8 20:54:45 10° NW 20:57:01 23° N 20:57:01 23° N visible
31 Mar -1.8 21:03:59 10° NW 21:06:37 21° N 21:08:18 15° NE visible
31 Mar -0.6 22:40:27 10° NW 22:41:04 14° NW 22:41:04 14° NW visible
01 Apr -1.6 20:13:08 10° NW 20:15:39 20° N 20:18:10 10° NE visible
01 Apr -2.4 21:49:47 10° NW 21:52:20 34° N 21:52:20 34° N visible
02 Apr -2.3 20:59:05 10° NW 21:02:00 27° NNE 21:03:36 19° ENE visible
02 Apr -0.8 22:35:31 10° WNW 22:36:21 17° WNW 22:36:21 17° WNW visible
